ASIASAT 6

Last updated on Tue Sep 16 2025 00:02:48 GMT+0000 (Coordinated Universal Time)

1 40141U 14052A 25258.68436589 -.00000379 00000+0 00000+0 0 9991 2 40141 0.0439 270.2369 0000938 254.1751 196.7616 1.00271472 40310
UTC large
Height (km)
Speed (km/s)
/
Latitude / Longitude
Inclination (degrees)
Orbital Period (minutes)
Azimuth
Elevation
Range (km)
Doppler Factor

Next 0 passes for location: London (51.5072 / 0.1276)

Sorry there are no passes over London.